[[{"header":{"parameterUnit":"m.s-1","parameterCategory":1,"la1":30.2991,"la2":30.254,"lo1":-89.0895,"lo2":-89.0444,"dy":0.0017,"dx":0.0017,"nx":28,"ny":28,"refTime":"2023-09-04T09:00:00:Z","depth":0,"parameterNumber":2,"parameterNumberName":"U-component_of_WINDS"},"data":[0,0,0,0,0,0,0,0,0,0,0,0,0,0,0,0,0,0,0,0,0,0,0,0,0,0,0,0,0,0,0,0,0,0,0,0,0,0,0,0,0,0,0,0,0,0,0,0,0,0,0,0,0,0,0,0,0,0,-3.6821,-3.6822,0,-3.687,-3.687,-3.6871,-3.6785,-3.6782,-3.6779,-3.6776,-3.6824,-3.6828,-3.6832,0,0,0,0,0,0,0,0,0,0,0,0,0,-3.6652,-3.6656,-3.6821,-3.6822,-3.6823,-3.687,-3.687,-3.6871,-3.6785,-3.6782,-3.6778,-3.6775,-3.6823,-3.6827,-3.6832,0,0,0,0,0,0,0,0,0,0,0,0,0,-3.6716,-3.6657,-3.6821,-3.6785,-3.6783,-3.687,-3.687,-3.6871,-3.6786,-3.6781,-3.6777,-3.6773,-3.6821,-3.6827,-3.6833,-3.6956,0,0,-3.6851,-3.6853,0,0,0,0,0,0,0,0,-3.6712,-3.6722,-3.679,-3.6788,-3.6785,-3.6817,-3.6828,-3.69,-3.6787,-3.6785,-3.6776,-3.6771,-3.6825,-3.683,-3.6849,-3.6958,-3.696,-3.6851,-3.6855,-3.6858,-3.6859,0,0,0,0,0,0,0,-3.6708,-3.6719,-3.684,-3.6791,-3.6788,-3.6766,-3.677,-3.6841,-3.6828,-3.6784,-3.6778,-3.6785,-3.6823,-3.6843,-3.6849,-3.6961,-3.6851,-3.6857,-3.686,-3.6863,-3.7172,-3.7176,0,0,0,0,0,0,-3.6708,-3.6716,-3.6839,-3.6842,-3.6737,-3.6773,-3.6777,-3.6811,-3.6827,-3.6826,-3.6789,-3.6781,-3.6835,-3.6842,-3.6851,-3.6994,-3.6858,-3.6863,-3.6866,-3.7167,-3.7173,-3.7178,0,0,0,0,0,0,-3.6705,-3.672,-3.6837,-3.6777,-3.6791,-3.678,-3.6819,-3.6814,-3.6835,-3.6831,-3.6828,-3.6813,-3.6832,-3.6842,-3.693,-3.6994,-3.6866,-3.6871,-3.7161,-3.7169,-3.7175,-3.7283,0,0,0,0,0,0,-3.67,-3.6719,-3.6767,-3.6779,-3.6794,-3.6917,-3.6823,-3.6818,-3.6845,-3.6835,-3.6852,-3.6851,-3.6829,-3.6922,-3.6936,-3.7,-3.6876,-3.7156,-3.7165,-3.7173,-3.7274,-3.7293,-3.731,0,0,0,0,0,-3.6695,-3.6796,-3.677,-3.6785,-3.6853,-3.6921,-3.6929,-3.6903,-3.6851,-3.6898,-3.6895,-3.685,-3.6986,-3.6931,-3.6947,-3.7014,-3.7151,-3.7162,-3.7172,-3.7266,-3.7289,-3.7309,0,0,0,0,0,0,-3.6791,-3.6797,-3.6768,-3.6876,-3.6899,-3.6906,-3.6964,-3.6929,-3.6967,-3.6956,-3.6921,-3.6926,-3.702,-3.7026,-3.6965,-3.7133,-3.7059,-3.7074,-3.7125,-3.7148,-3.7165,-3.7161,-3.6881,0,0,0,0,0,-3.6825,-3.688,-3.6881,-3.6977,-3.6989,-3.6975,-3.7004,-3.6982,-3.7003,-3.7012,-3.7016,-3.7038,-3.7085,-3.7117,-3.7161,-3.7275,-3.7276,-3.7329,-3.7346,-3.7361,-3.7373,-3.7431,-3.7454,-3.7212,-3.7212,-3.7212,0,0,-3.6895,-3.6905,-3.6942,-3.6996,-3.7011,-3.7067,-3.6984,-3.7047,-3.7088,-3.7022,-3.7104,-3.7108,-3.713,-3.7231,-3.7276,-3.7239,-3.744,-3.7374,-3.7386,-3.739,-3.7444,-3.7467,-3.7488,-3.7219,-3.7218,-3.7217,0,0,-3.7051,-3.7066,-3.7145,-3.7162,-3.7185,-3.7175,-3.7194,-3.7207,-3.7207,-3.7289,-3.724,-3.7288,-3.7371,-3.7388,-3.7407,-3.7569,-3.7528,-3.7585,-3.7677,-3.7734,-3.7753,-3.777,-3.7826,-3.7846,-3.7597,-3.7597,-3.7597,0,-3.7136,-3.7219,-3.7191,-3.7257,-3.7281,-3.7224,-3.7303,-3.7321,-3.7357,-3.7375,-3.7333,-3.7435,-3.7446,-3.7549,-3.7588,-3.7607,-3.7626,-3.7582,-3.7753,-3.777,-3.7785,-3.7837,-3.7858,-3.7604,-3.7603,-3.7602,-3.7602,0,-3.732,-3.7379,-3.744,-3.7477,-3.7508,-3.7581,-3.7562,-3.7598,-3.7573,-3.7567,-3.765,-3.7662,-3.7705,-3.7729,-3.7706,-3.7828,-3.7804,-3.7759,-3.7684,-3.7815,-3.7863,-3.7883,-3.7613,-3.7611,-3.7609,-3.7607,0,0,-3.7538,-3.7557,-3.758,-3.7595,-3.7616,-3.766,-3.773,-3.7773,-3.7803,-3.783,-3.7886,-3.7957,-3.7914,-3.7937,-3.7915,-3.7966,-3.809,-3.7913,-3.7913,-3.7944,-3.8223,-3.8256,-3.828,-3.8064,-3.8068,-3.8071,-3.8221,0,-3.7692,-3.7812,-3.7787,-3.7904,-3.7957,-3.7903,-3.7963,-3.7982,-3.7978,-3.8021,-3.8016,-3.8066,-3.8008,-3.802,-3.8069,-3.8065,-3.8145,-3.8054,-3.8114,-3.8116,-3.8108,-3.8306,-3.8341,-3.8481,-3.824,-3.8243,-3.8245,0,-3.7887,-3.7921,-3.8043,-3.8054,-3.8075,-3.813,-3.8166,-3.8209,-3.8229,-3.8222,-3.8247,-3.8215,-3.8282,-3.8208,-3.8299,-3.8238,-3.8261,-3.8263,-3.8267,-3.827,-3.8187,-3.8312,-3.8526,-3.8546,-3.8275,-3.8273,-3.8271,0,-3.8031,-3.8107,-3.8189,-3.8204,-3.822,-3.8259,-3.8267,-3.8283,-3.831,-3.8341,-3.8358,-3.8397,-3.8419,-3.8449,-3.8428,-3.8377,-3.8522,-3.8447,-3.8517,-3.8517,-3.8548,-3.8546,-3.8767,-3.8568,-3.8567,-3.8567,-3.8566,0,-3.8204,-3.828,-3.8254,-3.8304,-3.8388,-3.8359,-3.8442,-3.8443,-3.8457,-3.8506,-3.8462,-3.8509,-3.8479,-3.8523,-3.8507,-3.8584,-3.8594,-3.859,-3.8584,-3.8592,-3.8593,-3.8606,-3.8594,-3.8572,-3.8571,-3.857,-3.8569,0,-3.8378,-3.8364,-3.8449,-3.8457,-3.8461,-3.8521,-3.8527,-3.8573,-3.8566,-3.8628,-3.8641,-3.8629,-3.8679,-3.8661,-3.8714,-3.8703,-3.88,-3.8783,-3.8793,-3.8788,-3.8858,-3.8851,-3.9094,-3.9123,-3.8906,-3.8908,-3.891,0,-3.8488,-3.8545,-3.8559,-3.8588,-3.86,-3.8648,-3.8675,-3.8648,-3.8678,-3.8704,-3.8747,-3.8792,-3.8827,-3.8908,-3.8903,-3.8943,-3.8925,-3.9007,-3.893,-3.8936,-3.8923,-3.8919,-3.8924,-3.9022,-3.9024,-3.9026,-3.9028,0,-3.8685,-3.8674,-3.8715,-3.8753,-3.8786,-3.8815,-3.8839,-3.8866,-3.8841,-3.8876,-3.8925,-3.8953,-3.9006,-3.9051,-3.9086,-3.9093,-3.9056,-3.9052,-3.907,-3.9078,-3.9081,-3.9078,-3.8833,-3.9047,-3.9045,-3.9043,-3.9042,-3.9042,-3.8829,-3.8876,-3.8892,-3.8938,-3.8954,-3.8978,-3.9021,-3.9019,-3.906,-3.9101,-3.9083,-3.914,-3.9156,-3.92,-3.9212,-3.9255,-3.9223,-3.925,-3.9256,-3.9263,-3.927,-3.9076,-3.9262,-3.9261,-3.9261,-3.926,-3.926,0,-3.9021,-3.9028,-3.9071,-3.9106,-3.9142,-3.9105,-3.913,-3.9162,-3.9213,-3.9232,-3.9266,-3.9322,-3.9365,-3.9364,-3.9404,-3.9439,-3.9422,-3.945,-3.9446,-3.9448,-3.9298,-3.9278,-3.9462,-3.9462,-3.9462,-3.9462,-3.9462,-3.9462,-3.9125,-3.9202,-3.9194,-3.9278,-3.9285,-3.934,-3.9357,-3.9378,-3.9393,-3.9458,-3.9493,-3.9492,-3.9502,-3.9542,-3.9579,-3.9578,-3.9593,-3.9627,-3.9619,-3.9478,-3.9458,-3.9439,-3.942,-3.9631,-3.9631,-3.9764,-3.9765,-3.9766]},{"header":{"parameterUnit":"m.s-1","parameterCategory":1,"la1":30.2991,"la2":30.254,"lo1":-89.0895,"lo2":-89.0444,"dy":0.0017,"dx":0.0017,"nx":28,"ny":28,"refTime":"2023-09-04T09:00:00:Z","depth":0,"parameterNumber":3,"parameterNumberName":"V-component_of_WINDS"},"data":[0,0,0,0,0,0,0,0,0,0,0,0,0,0,0,0,0,0,0,0,0,0,0,0,0,0,0,0,0,0,0,0,0,0,0,0,0,0,0,0,0,0,0,0,0,0,0,0,0,0,0,0,0,0,0,0,0,0,2.4978,2.4979,0,2.5049,2.505,2.5051,2.5032,2.5031,2.5029,2.5028,2.5097,2.51,2.5103,0,0,0,0,0,0,0,0,0,0,0,0,0,2.4823,2.4826,2.4978,2.4979,2.498,2.5049,2.505,2.5051,2.5032,2.5031,2.5029,2.5027,2.5096,2.51,2.5103,0,0,0,0,0,0,0,0,0,0,0,0,0,2.4891,2.4827,2.4978,2.4979,2.498,2.5049,2.505,2.5051,2.5033,2.503,2.5028,2.5026,2.5095,2.5099,2.5104,2.5175,0,0,2.5118,2.512,0,0,0,0,0,0,0,0,2.4888,2.4897,2.4978,2.4979,2.498,2.503,2.5021,2.5093,2.5033,2.5012,2.5028,2.5025,2.5076,2.5082,2.51,2.5179,2.5182,2.5119,2.5122,2.5124,2.5125,0,0,0,0,0,0,0,2.4883,2.4894,2.5006,2.4979,2.498,2.4975,2.4982,2.5034,2.5055,2.5014,2.5013,2.5022,2.5076,2.5096,2.5102,2.5183,2.5119,2.5123,2.5126,2.5128,2.5322,2.5324,0,0,0,0,0,0,2.4878,2.489,2.5004,2.5008,2.4928,2.4979,2.4988,2.5016,2.5055,2.5058,2.5023,2.5021,2.5089,2.5096,2.5104,2.5189,2.5124,2.5128,2.5131,2.532,2.5323,2.5325,0,0,0,0,0,0,2.4874,2.4888,2.5001,2.4949,2.4963,2.4984,2.5016,2.5018,2.5038,2.5062,2.5065,2.504,2.5087,2.5097,2.5158,2.5191,2.513,2.5135,2.5317,2.5321,2.5324,2.5361,0,0,0,0,0,0,2.487,2.4887,2.4915,2.495,2.4966,2.5055,2.5018,2.5021,2.5046,2.5043,2.5078,2.5081,2.5086,2.5151,2.5162,2.5197,2.5138,2.5314,2.5319,2.5323,2.5357,2.5365,2.5372,0,0,0,0,0,2.4865,2.4922,2.4917,2.4931,2.5002,2.5057,2.5066,2.5072,2.5049,2.5077,2.5092,2.508,2.5186,2.5157,2.517,2.5206,2.5312,2.5317,2.5322,2.5353,2.5364,2.5372,0,0,0,0,0,0,2.489,2.4927,2.4921,2.4992,2.5022,2.5054,2.5089,2.5082,2.5118,2.5114,2.5118,2.5126,2.5188,2.5203,2.517,2.5277,2.5246,2.5254,2.5264,2.5275,2.5282,2.5277,2.5142,0,0,0,0,0,2.4904,2.4947,2.4976,2.5036,2.5051,2.5068,2.5092,2.5094,2.5124,2.5136,2.5156,2.5185,2.5224,2.525,2.5288,2.5359,2.5366,2.539,2.5398,2.5405,2.5411,2.5449,2.546,2.5342,2.5342,2.5342,0,0,2.4933,2.4959,2.4985,2.5042,2.5065,2.5108,2.5078,2.5125,2.5157,2.5143,2.5201,2.5217,2.5249,2.5315,2.5345,2.533,2.5445,2.5411,2.5416,2.5419,2.5455,2.5466,2.5476,2.5346,2.5345,2.5345,0,0,2.5008,2.5032,2.5084,2.5108,2.5144,2.5154,2.5167,2.52,2.521,2.5269,2.526,2.5297,2.5365,2.5388,2.5409,2.5493,2.5482,2.5505,2.5546,2.5582,2.5591,2.5599,2.5628,2.5638,2.5512,2.5512,2.5512,0,2.5039,2.5105,2.5111,2.5159,2.5184,2.5174,2.5226,2.5249,2.5295,2.5311,2.5294,2.538,2.5401,2.5471,2.5492,2.5509,2.5523,2.5501,2.559,2.5598,2.5606,2.5633,2.5644,2.5514,2.5514,2.5514,2.5513,0,2.5141,2.5187,2.5224,2.527,2.5299,2.5348,2.5361,2.5389,2.5388,2.54,2.546,2.5485,2.5528,2.5545,2.5544,2.5615,2.5604,2.5589,2.5557,2.5619,2.5645,2.5655,2.5518,2.5517,2.5516,2.5515,0,0,2.5234,2.5282,2.5296,2.5316,2.5355,2.539,2.5438,2.5481,2.5504,2.5536,2.5576,2.5635,2.562,2.5644,2.5646,2.5678,2.5741,2.5658,2.5658,2.5671,2.5819,2.583,2.5843,2.5735,2.5737,2.5739,2.5816,0,2.5311,2.5398,2.5405,2.5483,2.5524,2.5516,2.5558,2.5585,2.5598,2.5634,2.5647,2.5688,2.5666,2.568,2.5712,2.5727,2.577,2.5721,2.5771,2.5772,2.5762,2.5856,2.5868,2.594,2.5826,2.5828,2.5829,0,2.5413,2.5449,2.5531,2.5564,2.5581,2.5619,2.5658,2.5694,2.5724,2.5731,2.5757,2.5755,2.5803,2.5771,2.5837,2.5803,2.5824,2.5834,2.5837,2.5841,2.5804,2.5862,2.5964,2.5974,2.5846,2.5844,2.5843,0,2.5471,2.554,2.5598,2.5615,2.5655,2.5682,2.5699,2.5728,2.5753,2.5787,2.5803,2.5841,2.5862,2.5892,2.5899,2.5875,2.5965,2.5933,2.5971,2.597,2.5989,2.5988,2.6095,2.6004,2.6004,2.6004,2.6004,0,2.5556,2.5607,2.5624,2.566,2.5715,2.5722,2.5777,2.5793,2.5818,2.5856,2.585,2.5885,2.5893,2.593,2.5936,2.5989,2.5999,2.6004,2.6005,2.6004,2.6003,2.6017,2.6012,2.6007,2.6006,2.6006,2.6005,0,2.563,2.5644,2.5707,2.5739,2.5748,2.5788,2.5815,2.5848,2.586,2.5907,2.5919,2.5937,2.5979,2.599,2.604,2.6044,2.6107,2.6103,2.6097,2.6096,2.6132,2.6128,2.6251,2.6267,2.6167,2.6168,2.6169,0,2.5683,2.5722,2.5759,2.5784,2.5803,2.5844,2.5869,2.5877,2.5904,2.5941,2.597,2.6012,2.6046,2.6113,2.613,2.6168,2.6165,2.6205,2.617,2.6168,2.6164,2.6161,2.6165,2.6211,2.6213,2.6213,2.6214,0,2.5776,2.5781,2.5819,2.5859,2.589,2.5922,2.5952,2.5972,2.5984,2.6014,2.6058,2.6084,2.6136,2.6177,2.6215,2.6232,2.6225,2.6225,2.6236,2.6235,2.6229,2.6231,2.6113,2.6222,2.6221,2.6221,2.622,2.622,2.5841,2.5874,2.5905,2.5947,2.5971,2.5999,2.6032,2.6048,2.6085,2.6128,2.6131,2.6178,2.6206,2.6257,2.6276,2.6312,2.63,2.6315,2.6319,2.6322,2.6325,2.6224,2.6319,2.6319,2.6319,2.6319,2.6318,0,2.5932,2.5952,2.599,2.6033,2.6066,2.6058,2.609,2.6118,2.616,2.6188,2.6221,2.6271,2.6311,2.6331,2.637,2.6395,2.6392,2.6404,2.6402,2.6406,2.6334,2.6321,2.6406,2.6406,2.6406,2.6406,2.6406,2.6406,2.5983,2.604,2.6048,2.6115,2.6134,2.6181,2.6201,2.6226,2.6249,2.6305,2.6338,2.6351,2.6375,2.6416,2.6452,2.6457,2.6471,2.6484,2.6487,2.642,2.6411,2.6402,2.639,2.6488,2.6488,2.6556,2.6556,2.6557]}]]